Location: Calvatone
(45.1167°N, 10.4333°E)
Time: 11:52:07
(UTC+00:00)

ATLAS 2AS CENTAUR R/B - Pass Details

Date: 28 January 2023
Orbit: 986 x 1226 km, 63.7° (Epoch: 23 March)

Event Time Altitude Azimuth Distance (km) Brightness Sun altitude
Rises 19:11:33 0° 321° (NW) 3,963 6.3 -30.3°
Reaches altitude 10° 19:14:18 10° 320° (NW) 2,965 5.5 -30.8°
Maximum altitude 19:21:16 74° 237° (WSW) 1,095 2.7 -32.0°
Enters shadow 19:21:32 73° 217° (SW) 1,098 2.7 -32.1°
